Hulianwang W. Digui 03-03

operational
NORAD ID: 63689 Int'l Des: 2025-086 Owner: ZXW Country: CN Constellation: xingwang
LEOCIRCULARPOLARONEWEB_TYPE

关于 Hulianwang W. Digui 03-03

正在加载描述...

实时位置

正在加载3D地球...

即将过境

高度历史

Altitude vs Time

uPlot chart will show altitude changes over time

两行轨道根数

1 63689U 25086C 25341.29886224 .00000092 00000-0 18081-3 0 9991
2 63689 86.5061 17.6769 0002050 87.2742 272.8626 13.24413694 29464
Epoch: Dec 7, 2025 • Age: 13 hours

当前状态

高度 1173.4 km
速度 7.27 km/s
星下点 43.53°N, 169.05°E
发射日期 Apr 28, 2025
运行时间 0.6 years
类型 other

技术详情

分类 Payload
质量 800.00 kg
干质量 800.00 kg
总质量 800.00 kg
长度 3.00 m
直径 1.00 m
跨度 10.00 m
形状 Box + 2 Pan
制造商 CAST
平台类型 Guowang C
阶段状态 In Orbit
所有者/国家 ZXW/CN

大型星座

Loading constellations...